STARLINK-32947, 63121

Orbit data source: Space-Track

STARLINK-32947, 63121 is a payload satellite owned by SpaceX/Seattle (US) in LEO that was launched on Thu, 27 Feb 2025 UTC via an FALCON 9 launch vehicle from the Air Force Eastern Test Range (AFETR). Payload-class satellites include a variety of spacecraft equipped with specific instruments for various scientific and technological missions. These include communications satellites like Starlink; space stations such as the ISS; scientific satellites like the Hubble; Earth observation satellites from companies like Planet Labs, Umbra, and HawkEye 360; GPS; miniature CubeSats for education and research; and military/defense satellites.

Loading next visibility...
Identifier
63121, 2025-039T
Orbit
LEO
Country
Flag of USUS
Related business
Manufacturer
SpaceX/Seattle
Mission
Operational Commercial Communications
Bus & Motor
STARLINK V2M, Unknown motor
Mass
730 kg wet, ~700 kg dry
Launch date (UTC)
2025-02-27 (1 year ago)
Launch vehicle
FALCON 9
Launch site
Air Force Eastern Test Range (AFETR)
Object type
Payload
Rocket body
Debris
Shape & HBR
Box + 2 Pan, 17.7 m
Radar Cross Section
33.884 m², Large (>1 m²)

Expand to show TLE details & history
Last TLE update: 13 hours ago

TLE from 13 hours ago
0 STARLINK-32947
1 63121U 25039T   26071.83500264  .00030067  00000-0  10970-2 0  9991
2 63121  43.0034 354.5169 0002135 274.2178  85.8430 15.27600691 58552
Epoch: 2026-03-12T20:02Z
TLE epoch observation values (Epoch: 2026-03-12T20:02:24.228Z)
Latitude
0.00002°
Longitude
-116.56322°
Altitude
482.657 km
Speed
7.626 km/s
True Right ascension
23h 38m 04s
True Declination
0° 00' 00"
Sunlit
Object was in daylight at epoch
Visualization orbit readout
Latitude
Unknown
Longitude
Unknown
Altitude
Unknown
Speed
Unknown
Apparent Right ascension
Unknown
Apparent Declination
Unknown
Sunlit
N/A
Visualization observer readout
Local Sidereal Time
12:59:16
Azimuth
Unknown
Elevation
Unknown
Doppler factor
Unknown
Orbital elements
Apogee altitude
486.397 km
Perigee altitude
483.466 km
Semi-major axis
6,863.069 km
Eccentricity
0.00021
Inclination
43.0034°
RAAN
354.5169°
Arg. of periapsis
274.2178°
True anomaly
85.8674°
Mean anomaly
85.843°
Eccentric anomaly
85.8552°
Mean motion
3.81738 °/min
Orbital period
94.31 mins
BSTAR
0.001097
Loading maneuver chart data...
Computing Atmospheric mass density...
Loading historical data...
Loading historical data...
Loading historical data...
Loading historical data...
Loading historical data...
Loading historical data...
Loading historical data...

Documentation

Showing up to 5 results
|